When you browse on this site, cookies collect data to enhance your experience and personalize the content and advertising you see.
Visit our Privacy Policy to learn more. By continuing to use the site, you agree to this use of cookies and data.
  • In Hungary
  • List of Countries
  • For 7 days
  • Water Temperature
  • Weather Map
  • News
  • Weather Widgets
  • user-avatar
    Login

    Hourly Weather Vvedene

    Today, 22 September, Sunday

    Time Temperature Precipitation Wind Pressure Humidity
    00:00 +8°C° 0.5 mm 3 mps 731 mmHg 97%
    01:00 +7°C° 0.5 mm 4 mps 731 mmHg 95%
    02:00 +6°C° 0 mm 4 mps 731 mmHg 91%
    03:00 +6°C° 0 mm 4 mps 731 mmHg 92%
    04:00 +6°C° 0 mm 4 mps 731 mmHg 93%
    05:00 +5°C° 0 mm 4 mps 731 mmHg 94%
    06:00 +5°C° 0.1 mm 4 mps 732 mmHg 93%
    07:00 +5°C° 0.1 mm 4 mps 732 mmHg 93%
    08:00 +5°C° 0.1 mm 3 mps 732 mmHg 93%
    09:00 +5°C° 0.3 mm 4 mps 733 mmHg 90%
    10:00 +5°C° 0.3 mm 4 mps 733 mmHg 87%
    11:00 +6°C° 0.3 mm 5 mps 733 mmHg 84%
    12:00 +6°C° 0.1 mm 5 mps 734 mmHg 76%
    13:00 +7°C° 0.1 mm 5 mps 734 mmHg 67%
    14:00 +8°C° 0.1 mm 6 mps 734 mmHg 59%
    15:00 +7°C° 0 mm 5 mps 735 mmHg 62%
    16:00 +6°C° 0 mm 4 mps 735 mmHg 64%
    17:00 +5°C° 0 mm 3 mps 736 mmHg 67%
    18:00 +4°C° 0 mm 3 mps 736 mmHg 72%
    19:00 +3°C° 0 mm 3 mps 737 mmHg 77%
    20:00 +2°C° 0 mm 3 mps 737 mmHg 81%
    21:00 +1°C° 0 mm 3 mps 738 mmHg 85%
    22:00 +2°C° 0 mm 2 mps 738 mmHg 89%
    23:00 +1°C° 0 mm 2 mps 738 mmHg 93%

    Tomorrow, 23 September, Monday

    Time Temperature Precipitation Wind Pressure Humidity
    00:00 +1°C° 0 mm 2 mps 739 mmHg 94%
    01:00 +1°C° 0 mm 2 mps 739 mmHg 96%
    02:00 -1°C° 0 mm 2 mps 740 mmHg 97%
    03:00 -1°C° 0 mm 2 mps 740 mmHg 97%
    04:00 -1°C° 0 mm 2 mps 741 mmHg 98%
    05:00 -2°C° 0 mm 2 mps 741 mmHg 98%
    06:00 -1°C° 0 mm 3 mps 741 mmHg 93%
    07:00 0°C° 0 mm 3 mps 742 mmHg 88%
    08:00 +1°C° 0 mm 3 mps 742 mmHg 83%
    09:00 +3°C° 0 mm 3 mps 742 mmHg 75%
    10:00 +4°C° 0 mm 3 mps 742 mmHg 67%
    11:00 +7°C° 0 mm 3 mps 743 mmHg 60%
    12:00 +8°C° 0 mm 3 mps 743 mmHg 57%
    13:00 +8°C° 0 mm 3 mps 742 mmHg 55%
    14:00 +9°C° 0 mm 3 mps 742 mmHg 53%
    15:00 +8°C° 0 mm 3 mps 742 mmHg 57%
    16:00 +7°C° 0 mm 3 mps 742 mmHg 62%
    17:00 +6°C° 0 mm 2 mps 742 mmHg 66%
    18:00 +4°C° 0 mm 2 mps 742 mmHg 72%
    19:00 +3°C° 0 mm 2 mps 742 mmHg 78%
    20:00 +2°C° 0 mm 2 mps 742 mmHg 84%
    21:00 +1°C° 0 mm 2 mps 742 mmHg 84%
    22:00 +1°C° 0 mm 2 mps 742 mmHg 84%
    23:00 +1°C° 0 mm 2 mps 742 mmHg 84%

    Day after tomorrow, 24 September, Tuesday

    Time Temperature Precipitation Wind Pressure Humidity
    00:00 +1°C° 0 mm 2 mps 742 mmHg 87%
    01:00 +1°C° 0 mm 2 mps 742 mmHg 89%
    02:00 +2°C° 0 mm 1 mps 743 mmHg 92%
    03:00 +2°C° 0 mm 1 mps 742 mmHg 92%
    04:00 +2°C° 0 mm 1 mps 742 mmHg 91%
    05:00 +2°C° 0 mm 1 mps 742 mmHg 91%
    06:00 +2°C° 0 mm 2 mps 742 mmHg 86%
    07:00 +3°C° 0 mm 2 mps 742 mmHg 81%
    08:00 +4°C° 0 mm 2 mps 742 mmHg 76%
    09:00 +5°C° 0 mm 2 mps 742 mmHg 72%
    10:00 +6°C° 0 mm 2 mps 742 mmHg 67%
    11:00 +7°C° 0 mm 2 mps 742 mmHg 62%
    12:00 +7°C° 0.1 mm 2 mps 742 mmHg 62%
    13:00 +7°C° 0.1 mm 2 mps 742 mmHg 61%
    14:00 +8°C° 0.1 mm 2 mps 742 mmHg 60%
    15:00 +7°C° 0 mm 2 mps 741 mmHg 65%
    16:00 +7°C° 0 mm 1 mps 741 mmHg 69%
    17:00 +7°C° 0 mm 1 mps 741 mmHg 73%
    18:00 +5°C° 0 mm 1 mps 741 mmHg 78%
    19:00 +4°C° 0 mm 1 mps 741 mmHg 82%
    20:00 +3°C° 0 mm 1 mps 741 mmHg 87%
    21:00 +3°C° 0 mm 1 mps 741 mmHg 88%
    22:00 +2°C° 0 mm 1 mps 741 mmHg 89%
    23:00 +1°C° 0 mm 0 mps 741 mmHg 91%

    25 September, Wednesday

    Time Temperature Precipitation Wind Pressure Humidity
    00:00 +1°C° 0 mm 0 mps 741 mmHg 91%
    01:00 +1°C° 0 mm 0 mps 741 mmHg 91%
    02:00 0°C° 0 mm 0 mps 741 mmHg 91%
    03:00 +1°C° 0 mm 1 mps 741 mmHg 92%
    04:00 +1°C° 0 mm 1 mps 741 mmHg 92%
    05:00 +1°C° 0 mm 1 mps 741 mmHg 93%
    06:00 +2°C° 0 mm 1 mps 741 mmHg 88%
    07:00 +4°C° 0 mm 1 mps 741 mmHg 82%
    08:00 +5°C° 0 mm 1 mps 741 mmHg 77%
    09:00 +6°C° 0 mm 1 mps 741 mmHg 71%
    10:00 +7°C° 0 mm 2 mps 741 mmHg 65%
    11:00 +8°C° 0 mm 2 mps 742 mmHg 59%
    12:00 +8°C° 0 mm 2 mps 741 mmHg 58%
    13:00 +9°C° 0 mm 2 mps 741 mmHg 57%
    14:00 +9°C° 0 mm 2 mps 741 mmHg 56%
    15:00 +8°C° 0 mm 2 mps 741 mmHg 61%
    16:00 +9°C° 0 mm 1 mps 740 mmHg 66%
    17:00 +8°C° 0 mm 1 mps 740 mmHg 71%
    18:00 +7°C° 0 mm 1 mps 740 mmHg 73%
    19:00 +7°C° 0 mm 1 mps 740 mmHg 75%
    20:00 +6°C° 0 mm 1 mps 741 mmHg 77%
    21:00 +6°C° 0.1 mm 1 mps 741 mmHg 79%
    22:00 +5°C° 0.1 mm 2 mps 741 mmHg 82%
    23:00 +5°C° 0.1 mm 2 mps 741 mmHg 85%

    26 September, Thursday

    Time Temperature Precipitation Wind Pressure Humidity
    00:00 +5°C° 0.1 mm 2 mps 740 mmHg 86%
    01:00 +5°C° 0.1 mm 2 mps 740 mmHg 87%
    02:00 +4°C° 0.1 mm 3 mps 740 mmHg 88%
    03:00 +4°C° 0 mm 3 mps 740 mmHg 87%
    04:00 +3°C° 0 mm 3 mps 740 mmHg 86%
    05:00 +3°C° 0 mm 3 mps 739 mmHg 85%
    06:00 +4°C° 0.1 mm 3 mps 739 mmHg 83%
    07:00 +4°C° 0.1 mm 4 mps 739 mmHg 82%
    08:00 +4°C° 0.1 mm 4 mps 739 mmHg 80%
    09:00 +4°C° 0.2 mm 4 mps 739 mmHg 82%
    10:00 +4°C° 0.2 mm 4 mps 739 mmHg 85%
    11:00 +4°C° 0.2 mm 4 mps 739 mmHg 88%
    12:00 +4°C° 0.6 mm 4 mps 738 mmHg 90%
    13:00 +4°C° 0.6 mm 3 mps 738 mmHg 92%
    14:00 +4°C° 0.6 mm 3 mps 737 mmHg 95%
    15:00 +4°C° 1 mm 3 mps 737 mmHg 96%
    16:00 +4°C° 1 mm 3 mps 737 mmHg 96%
    17:00 +4°C° 1 mm 3 mps 736 mmHg 97%
    18:00 +4°C° 0.4 mm 3 mps 736 mmHg 97%
    19:00 +5°C° 0.4 mm 2 mps 736 mmHg 97%
    20:00 +6°C° 0.4 mm 2 mps 735 mmHg 98%
    21:00 +6°C° 0.4 mm 2 mps 735 mmHg 98%
    22:00 +6°C° 0.4 mm 2 mps 735 mmHg 98%
    23:00 +6°C° 0.4 mm 2 mps 735 mmHg 99%

    27 September, Friday

    Time Temperature Precipitation Wind Pressure Humidity
    00:00 +6°C° 0.4 mm 2 mps 734 mmHg 99%
    01:00 +6°C° 0.4 mm 2 mps 734 mmHg 99%
    02:00 +7°C° 0.4 mm 2 mps 734 mmHg 98%
    03:00 +6°C° 0.3 mm 2 mps 734 mmHg 98%
    04:00 +6°C° 0.3 mm 2 mps 734 mmHg 98%
    05:00 +5°C° 0.3 mm 3 mps 734 mmHg 98%
    06:00 +5°C° 0.2 mm 3 mps 734 mmHg 97%
    07:00 +5°C° 0.2 mm 3 mps 734 mmHg 96%
    08:00 +5°C° 0.2 mm 4 mps 735 mmHg 95%
    09:00 +5°C° 0 mm 4 mps 735 mmHg 93%
    10:00 +6°C° 0 mm 4 mps 736 mmHg 90%
    11:00 +6°C° 0 mm 4 mps 736 mmHg 88%
    12:00 +7°C° 0 mm 4 mps 736 mmHg 81%
    13:00 +8°C° 0 mm 4 mps 737 mmHg 74%
    14:00 +10°C° 0 mm 4 mps 737 mmHg 67%
    15:00 +9°C° 0 mm 3 mps 737 mmHg 69%
    16:00 +8°C° 0 mm 3 mps 738 mmHg 72%
    17:00 +8°C° 0 mm 2 mps 738 mmHg 75%
    18:00 +7°C° 0 mm 2 mps 738 mmHg 77%
    19:00 +6°C° 0 mm 2 mps 739 mmHg 79%
    20:00 +6°C° 0 mm 2 mps 740 mmHg 80%
    21:00 +5°C° 0 mm 2 mps 740 mmHg 83%
    22:00 +4°C° 0 mm 2 mps 740 mmHg 86%
    23:00 +4°C° 0 mm 1 mps 741 mmHg 89%
    Show more